TimeCST,TemperatureF,Dew PointF,Humidity,Sea Level PressureIn,VisibilityMPH,Wind Direction,Wind SpeedMPH,Gust SpeedMPH,PrecipitationIn,Events,Conditions,WindDirDegrees,DateUTC
12:53 AM,32.0,21.9,66,29.85,10.0,SSE,13.8,-,N/A,,Clear,160,2013-01-08 06:53:00
1:53 AM,32.0,21.9,66,29.82,10.0,South,16.1,-,N/A,,Clear,170,2013-01-08 07:53:00
2:53 AM,33.1,19.9,59,29.81,10.0,South,21.9,28.8,N/A,,Clear,180,2013-01-08 08:53:00
3:53 AM,34.0,19.9,56,29.78,10.0,South,20.7,27.6,N/A,,Clear,170,2013-01-08 09:53:00
4:53 AM,36.0,19.0,50,29.75,10.0,South,21.9,-,N/A,,Clear,180,2013-01-08 10:53:00
5:53 AM,35.1,19.9,54,29.73,10.0,South,27.6,34.5,N/A,,Overcast,170,2013-01-08 11:53:00
6:53 AM,35.1,19.9,54,29.73,10.0,SSW,16.1,23.0,N/A,,Overcast,200,2013-01-08 12:53:00
8:53 AM,33.1,21.9,64,29.78,10.0,SW,9.2,-,N/A,,Partly Cloudy,220,2013-01-08 14:53:00
9:53 AM,35.1,23.0,61,29.81,10.0,West,9.2,-,N/A,,Clear,270,2013-01-08 15:53:00
10:53 AM,37.9,26.1,62,29.82,10.0,WNW,9.2,-,N/A,,Clear,300,2013-01-08 16:53:00
11:53 AM,42.1,28.0,58,29.81,10.0,West,18.4,-,N/A,,Clear,280,2013-01-08 17:53:00
12:53 PM,46.9,30.9,54,29.78,10.0,WNW,20.7,29.9,N/A,,Clear,300,2013-01-08 18:53:00
1:53 PM,48.0,30.9,52,29.81,10.0,WNW,25.3,31.1,N/A,,Clear,300,2013-01-08 19:53:00
2:53 PM,48.0,32.0,54,29.85,10.0,NW,18.4,26.5,N/A,,Clear,310,2013-01-08 20:53:00
3:53 PM,46.9,32.0,56,29.89,10.0,WNW,17.3,-,N/A,,Clear,300,2013-01-08 21:53:00
4:53 PM,42.1,33.1,70,29.94,10.0,NW,9.2,-,N/A,,Overcast,320,2013-01-08 22:53:00
5:53 PM,39.0,30.9,73,29.97,10.0,WNW,9.2,-,N/A,,Clear,300,2013-01-08 23:53:00
6:53 PM,37.0,30.0,76,30.01,10.0,West,11.5,-,N/A,,Partly Cloudy,270,2013-01-09 00:53:00
7:53 PM,39.0,30.9,73,30.04,10.0,West,13.8,-,N/A,,Overcast,270,2013-01-09 01:53:00
8:53 PM,39.9,30.0,68,30.06,10.0,West,17.3,-,N/A,,Mostly Cloudy,280,2013-01-09 02:53:00
9:53 PM,37.0,28.0,70,30.10,10.0,West,16.1,-,N/A,,Clear,270,2013-01-09 03:53:00
10:53 PM,36.0,28.0,73,30.14,10.0,West,13.8,-,N/A,,Clear,270,2013-01-09 04:53:00
11:53 PM,35.1,27.0,72,30.17,10.0,West,12.7,-,N/A,,Clear,260,2013-01-09 05:53:00